Location: Newark
(45.4422°N, 16.2769°E)
Time: 00:20:13
(UTC+00:00)

SR - Visible Passes

Search period start: 13 December 2019 00:00
Search period end: 23 December 2019 00:00
Orbit: 573 x 882 km, 66.7° (Epoch: 12 December)

Date Brightness Start Highest point End Pass type
(mag) Time Alt. Az. Time Alt. Az. Time Alt. Az.
13 Dec ? 16:13:19 10° NNW 16:19:16 79° ENE 16:24:50 10° SE visible
13 Dec ? 17:56:50 10° WNW 18:00:38 18° WSW 18:04:17 10° SW visible
14 Dec ? 17:06:13 10° NW 17:11:23 34° WSW 17:16:17 10° S visible
15 Dec ? 16:16:10 10° NW 16:21:57 62° WSW 16:27:23 10° SSE visible
16 Dec ? 17:09:48 10° WNW 17:13:44 19° WSW 17:17:31 10° SSW visible
17 Dec ? 16:19:14 10° NW 16:24:29 36° WSW 16:29:26 10° S visible
18 Dec ? 05:10:17 10° SE 05:13:58 18° ESE 05:17:48 10° ENE visible
19 Dec ? 16:22:46 10° WNW 16:26:51 20° WSW 16:30:45 10° SSW visible
20 Dec ? 05:11:26 10° S 05:16:19 32° ESE 05:21:26 10° NE visible
21 Dec ? 04:23:32 10° SE 04:27:05 17° ESE 04:30:44 10° ENE visible
21 Dec ? 16:28:05 10° W 16:29:03 10° W 16:30:00 10° WSW visible
22 Dec ? 05:13:21 10° SSW 05:18:48 56° ESE 05:24:34 10° NE visible
